スワン彗星

C/2020 F8 ( SWAN )

English version
Home page
Updated on June 29, 2020

---------------------------------------------------------------------

・ プロフィール

発見日 2020年3月25日
発見光度
発見者 M. Mattiazzo, Swan Hill, Vic., Australia (Solar Wind Anisotropies (SWAN) camera on the Solar and Heliospheric Observer (SOHO) spacecraft)

・ 写真集

・ 軌道要素

Epoch 2020 May 31.0 TT = JDT 2459000.5
T 2020 May 27.54106 TT                                  Rudenko
q   0.4303031            (2000.0)            P               Q
z  -0.0006061      Peri.   68.18878     -0.38891332     +0.03069171
 +/-0.0001367      Node   260.03799     -0.62867982     +0.72172949
e   1.0002608      Incl.  110.79476     +0.67343011     +0.69149444
From 293 observations 2020 Apr. 10-May 12, mean residual 0".6.

・ 星図

・ 光度変化

        m1 =  7.0 + 5 logΔ + 10.0 log r          [   ,-25]  (              〜2020年 5月 2日)
        m1 = 11.0 + 5 logΔ + 15.0 log r(t + 30)  [-25,-17]  (2020年 5月 2日〜2020年 5月10日)
        m1 =  7.0 + 5 logΔ +  0.0 log r          [-17,  0]  (2020年 5月10日〜2020年 5月27日)
        m1 = 10.7 + 5 logΔ + 10.0 log r          [  0,   ]  (2020年 5月27日〜              )

---------------------------------------------------------------------

軌道要素はM.P.E.C. 2020-M114に掲載されたものです。
星図はステラナビゲータ Ver.10 (アストロアーツ) で作成したものです。
光度グラフはComet for Windowsで作成したものです。

---------------------------------------------------------------------

Copyright(C) Seiichi Yoshida (comet@aerith.net). All rights reserved.